Weather observations for the past three days for
Elizabeth City C/G Regional Airport
Metric (Imperial)
Date Time (edt) Wind (kph) Vis. (km) Weather Sky Cond. Temperature (ºC) Relative Humidity Wind Chill (°C) Heat Index (°C) Pressure Precipitation (cm)
Air Dwpt 6 hour altimeter (cm) sea level (mb) 1 hr 3 hr 6 hr
Max. Min.
16 06:54 N 6 8.05 Fog/Mist CLR 19.4 18.9 97% 76.63 1021.4
16 05:54 Calm 12.87 Fair CLR 18.3 18.3 100% 76.58 1020.8
16 04:54 Calm 0.40 Fog CLR 17.8 17.8 100% 76.5 1020.0
16 03:54 Calm 12.87 Fair CLR 18.3 17.8 97% 76.5 1019.8
16 02:54 E 6 16.09 Fair CLR 19.4 18.3 93% 76.48 1019.7
16 01:54 E 6 16.09 Fair CLR 20 18.9 25 19.4 93% 76.48 1019.6
16 00:54 Calm 16.09 Fair CLR 20.6 18.9 90% 76.48 1019.6
15 23:54 E 11 16.09 Fair CLR 21.7 19.4 87% 76.48 1019.6
15 22:54 E 6 16.09 Fair CLR 21.7 18.9 84% 76.48 1019.4
15 21:54 E 9 16.09 Fair CLR 22.2 18.3 79% 76.43 1019.0
15 20:54 E 13 16.09 Fair CLR 22.8 17.8 74% 76.35 1018.0
15 19:54 E 20 16.09 Fair CLR 25 17.8 29.4 25 64% 26 76.35 1017.7
15 18:54 NE 20 16.09 Fair CLR 26.7 18.9 62% 28 76.3 1017.3
15 17:54 NE 20 16.09 Fair CLR 27.8 19.4 60% 29 76.25 1016.5
15 16:54 E 17 16.09 Fair CLR 27.8 20 63% 29 76.23 1016.1
15 15:54 E 19 16.09 Fair CLR 28.9 20 59% 31 76.23 1016.0
15 14:54 NE 20 16.09 Fair CLR 28.9 20.6 61% 31 76.23 1016.0
15 13:54 NE 19 16.09 Mostly Cloudy BKN038 28.3 20 29.4 25 61% 30 76.23 1016.1
15 12:54 NE 19 16.09 A Few Clouds FEW035 28.3 20 61% 30 76.23 1016.2
15 11:54 N 19 16.09 Mostly Cloudy BKN030 28.9 21.1 63% 31 76.2 1015.8
15 10:54 N 24 16.09 Mostly Cloudy BKN021 28.3 21.7 67% 31 76.15 1015.3
15 09:54 N 24 16.09 Partly Cloudy SCT020 26.7 21.7 74% 29 76.15 1015.0
15 08:54 N 22 16.09 Fair CLR 25 21.1 79% 26 76.1 1014.6
15 07:54 NW 15 16.09 Fair CLR 25 20.6 25 21.1 77% 26 76.02 1013.6
15 06:54 W 11 16.09 Fair CLR 22.8 20 84% 75.97 1012.9
15 05:54 W 6 16.09 Fair CLR 21.1 19.4 90% 75.92 1012.0
15 04:54 W 6 16.09 Fair CLR 22.2 20 87% 75.9 1011.8
15 03:54 Calm 16.09 A Few Clouds FEW080 23.3 20.6 85% 75.84 1011.2
15 02:54 S 11 16.09 Partly Cloudy FEW075 SCT095 23.9 21.1 84% 24 75.84 1011.0
15 01:54 SW 6 16.09 Mostly Cloudy BKN065 22.8 20 26.1 21.1 84% 75.87 1011.5
15 00:54 S 7 16.09 NULL NULL 22.8 20 84% 75.87 1011.5
14 23:54 S 6 16.09 Fair CLR 21.7 18.9 84% 75.9 1011.7
14 22:54 S 7 16.09 Fair CLR 23.9 18.9 74% 25 75.9 1011.7
14 21:54 S 7 16.09 Fair CLR 24.4 18.3 69% 25 75.87 1011.6
14 20:54 SE 7 16.09 Fair CLR 25 18.3 66% 26 75.84 1011.0
14 19:54 SE 7 16.09 Fair CLR 26.1 17.2 31.1 26.1 58% 27 75.84 1010.9
14 18:54 SE 11 16.09 Fair CLR 27.8 17.2 53% 28 75.82 1010.7
14 17:54 SE 15 16.09 Fair CLR 28.9 16.7 48% 29 75.82 1010.6
14 16:54 SE 15 16.09 Fair CLR 29.4 17.2 48% 30 75.82 1010.9
14 15:54 N 9 16.09 Fair CLR 31.1 13.9 35% 30 75.87 1011.3
14 14:54 Vrbl 11 16.09 Fair CLR 31.1 16.1 40% 31 75.9 1011.6
14 13:54 E 9 16.09 Fair CLR 30.6 16.1 30.6 24.4 42% 31 75.95 1012.6
14 12:54 Vrbl 7 16.09 Fair CLR 30 17.8 48% 31 76 1013.0
14 11:54 NE 7 16.09 Fair CLR 28.9 17.2 49% 29 76.05 1013.8
14 10:54 Vrbl 7 16.09 Fair CLR 27.8 17.2 53% 28 76.1 1014.4
14 09:54 NE 9 16.09 Fair CLR 27.2 17.8 57% 28 76.1 1014.5
14 08:54 SE 6 16.09 Fair CLR 26.1 17.2 58% 27 76.1 1014.6
14 07:54 E 6 16.09 Fair CLR 24.4 19.4 24.4 17.2 74% 25 76.12 1014.7
14 06:54 Calm 16.09 Fair CLR 20.6 19.4 93% 76.1 1014.6
14 05:54 Calm 16.09 Fair CLR 18.9 17.8 93% 76.12 1014.8
14 04:54 Calm 16.09 Fair CLR 19.4 17.8 91% 76.1 1014.5
14 03:54 Calm 16.09 Fair CLR 18.3 17.8 97% 76.1 1014.3
14 02:54 Calm 16.09 Fair CLR 19.4 18.3 93% 76.12 1014.9
14 01:54 SE 6 16.09 Fair CLR 21.7 18.3 25.6 18.9 81% 76.17 1015.4
14 00:54 Calm 16.09 Fair CLR 21.7 18.3 81% 76.2 1015.8
13 23:54 Calm 16.09 Fair CLR 21.1 17.8 82% 76.23 1016.2
13 22:54 S 7 16.09 Fair CLR 22.8 18.3 76% 76.23 1016.2
13 21:54 S 6 16.09 Fair CLR 23.9 17.8 69% 25 76.25 1016.7
13 20:54 SE 7 16.09 Fair CLR 23.9 17.2 66% 25 76.23 1016.3
13 19:54 SE 17 16.09 Fair CLR 25.6 17.2 28.9 25.6 60% 27 76.25 1016.5
13 18:54 SE 19 16.09 Fair CLR 26.7 17.8 58% 28 76.25 1016.5
13 17:54 SE 17 16.09 Fair CLR 27.8 17.8 55% 29 76.23 1016.2
13 16:54 SE 22 16.09 Fair CLR 27.2 17.2 54% 28 76.25 1016.5
13 15:54 SE 26 16.09 Fair CLR 27.8 17.2 53% 28 76.28 1016.9
13 14:54 SE 20 16.09 Fair CLR 27.8 17.8 55% 29 76.33 1017.5
13 13:54 E 22 16.09 Fair CLR 27.8 18.3 28.3 23.9 56% 29 76.35 1017.8
13 12:54 E 20 16.09 Fair CLR 27.8 17.8 55% 29 76.38 1018.1
13 11:54 SE 17 16.09 Fair CLR 27.8 17.2 53% 28 76.38 1018.2
13 10:54 E 13 16.09 Fair CLR 27.8 15 46% 28 76.35 1018.0
13 09:54 E 19 16.09 Fair CLR 26.7 18.9 62% 28 76.38 1018.0
13 08:54 SE 7 16.09 Fair CLR 25.6 19.4 69% 27 76.38 1018.2
13 07:54 E 7 16.09 Fair CLR 23.9 20 23.9 18.3 79% 24 76.38 1018.2
Date Time (edt) Wind (kph) Vis. (km) Weather Sky Cond. Air Dwpt Max. Min. Relative Humidity Wind Chill (°C) Heat Index (°C) altimeter (cm) sea level (mb) 1 hr 3 hr 6 hr
6 hour
Temperature (ºC) Pressure Precipitation (cm)